Regional Weather Roundup
Issued by NWS

Home | Current Version | Previous Version | Graphics & Text | Print | Product List | Glossary On
Versions: 1 2 3 4 5 6 7 8 9 10 11 12 13 14 15 16 17 18 19 20 21 22 23 24 25 26 27 28 29 30 31 32 33 34 35 36 37 38 39 40 41 42 43 44 45 46 47 48 49 50
000
ASUS45 KPSR 191710
RWRAZ

ARIZONA HOURLY REGIONAL WEATHER ROUNDUP
NATIONAL WEATHER SERVICE PHOENIX AZ
1000 AM MST THU OCT 19 2017

NOTE: FAIR INDICATES FEW OR NO CLOUDS BELOW 12,000 FEET WITH NO
SIGNIFICANT WEATHER AND/OR OBSTRUCTIONS TO VISIBILITY.

AZZ001>003-036-191800-
NORTHWEST ARIZONA

CITY           SKY/WX    TMP DP  RH WIND       PRES   REMARKS
BULLHEAD CITY  MOSUNNY   75  23  14 S5        29.83F
KINGMAN        MOSUNNY   79  34  19 SW9       29.96S
$$

AZZ004>008-015-016-018-191800-
NORTH CENTRAL ARIZONA

CITY           SKY/WX    TMP DP  RH WIND       PRES   REMARKS
GRAND CANYON   MOSUNNY   57  45  64 CALM      30.16F
WILLIAMS       PTSUNNY   68  27  21 SW10G16   30.16S
PRESCOTT       SUNNY     74  32  21 SE8       30.06F
FLAGSTAFF      MOSUNNY   65  30  27 SW9       30.18F
PAYSON           N/A     70  34  26 VRB5      30.11S
PAGE           PTSUNNY   62  35  36 N3        30.05F
$$

AZZ009>014-017-191800-
NORTHEAST ARIZONA

CITY           SKY/WX    TMP DP  RH WIND       PRES   REMARKS
WINSLOW        PTSUNNY   69  33  26 E8        30.09F
SAINT JOHNS    MOSUNNY   74  33  22 S8        30.11F
WINDOW ROCK    PTSUNNY   61  30  31 NW3       30.20F
SHOW LOW       PTSUNNY   70  28  21 SW15      30.18S
$$

AZZ540-542>544-546-548-191800-
GREATER PHOENIX AREA

CITY           SKY/WX    TMP DP  RH WIND       PRES   REMARKS
PHOENIX        MOSUNNY   82  43  25 E7        29.84S
BUCKEYE        SUNNY     79  73  83 SE5       29.85F
GLENDALE       MOSUNNY   81  43  26 CALM      29.86F
LUKE AFB       SUNNY     82  43  24 CALM      29.84S
DEER VALLEY    MOSUNNY   83  38  20 SE3       29.85F
SCOTTSDALE     MOSUNNY   81  44  27 S5        29.88S
MESA-FALCON    MOSUNNY   82  39  21 CALM      29.87
MESA-GATEWAY   PTSUNNY   75  43  31 SE8       29.87F
CHANDLER       PTSUNNY   82  43  24 CALM      29.86S
$$

AZZ539-553-191800-
SOUTHWEST MARICOPA COUNTY AND PINAL COUNTY

CITY           SKY/WX    TMP DP  RH WIND       PRES   REMARKS
CASA GRANDE    NOT AVBL
GILA BEND      MOSUNNY   86  39  19 N3        29.83S
$$

AZZ503-504-507>509-191800-
SOUTHEAST ARIZONA

CITY           SKY/WX    TMP DP  RH WIND       PRES   REMARKS
TUCSON         MOSUNNY   84  37  18 SE5       29.96F
DAVIS-MONTHAN  PTSUNNY   86  34  15 SE3       29.94F
RYAN FIELD     SUNNY     79  39  24 E3        29.95F
NOGALES        SUNNY     84  36  18 S6        30.04S
SIERRA VISTA   PTSUNNY   80  31  17 CALM      30.09S
DOUGLAS          N/A    N/A N/A N/A MISG      30.06F
SAFFORD        SUNNY     79  45  29 SE9       29.99F
$$

AZZ532-191800-
SOUTHWEST ARIZONA

CITY           SKY/WX    TMP DP  RH WIND       PRES   REMARKS
YUMA           MOSUNNY   83  42  23 W6        29.81S
$$

CAZ041-043-047-048-061-525>527-560>570-191800-
SOUTHERN CALIFORNIA

CITY           SKY/WX    TMP DP  RH WIND       PRES   REMARKS
DOWNTOWN L.A.  MOSUNNY   72  59  63 CALM      29.92S
L.A. AIRPORT   PTSUNNY   72  61  68 SE6       29.93R
SAN DIEGO      PTSUNNY   68  60  75 S3        29.95R
BURBANK        SUNNY     68  57  68 CALM      29.93F
ONTARIO        MOSUNNY   68  58  70 W3        29.93F HAZE
RIVERSIDE      MOSUNNY   66  60  81 W3        29.94S
PALM SPRINGS   SUNNY     84  47  27 CALM      29.83R
EL CENTRO NAS  MOSUNNY   85  34  16 SE5       29.80S
IMPERIAL       SUNNY     85  37  18 SE3       29.78F
BLYTHE         SUNNY     78  41  26 E3        29.81F
NEEDLES        SUNNY     78  22  12 SE3       29.84F
$$

NVZ020-UTZ003-191800-
SOUTHERN NEVADA-UTAH

CITY           SKY/WX    TMP DP  RH WIND       PRES   REMARKS
LAS VEGAS      PTSUNNY   76  27  16 N3        29.89S
SALT LAKE CITY MOSUNNY   62  27  26 E6        29.99F
$$

NMZ009-TXZ055-191800-
NEW MEXICO-WEST TEXAS

CITY           SKY/WX    TMP DP  RH WIND       PRES   REMARKS
ALBUQUERQUE    CLOUDY    62  33  33 W6        30.17S
EL PASO        MOSUNNY   75  51  43 SE6       30.09F
$$


........................KEY........................
SKY/WX - SKY CONDITION/WEATHER
TMP    - TEMPERATURE IN FAHRENHEIT
DP     - DEW POINT IN FAHRENHEIT
RH     - RELATIVE HUMIDITY IN PERCENT
WIND   - DIRECTION AND SPEED IN MILES PER HOUR (MPH)
VRB    - VARIABLE WIND DIRECTION
PRES   - MEAN SEA LEVEL PRESSURE IN INCHES OF MERCURY
         F - FALLING PRESSURE   R - RISING PRESSURE
         S - STEADY PRESSURE
VSB    - VISIBILITY IN MILES
HX     - HEAT INDEX IN FAHRENHEIT
WCI    - WIND CHILL INDEX IN FAHRENHEIT
TC     - TEMPERATURE IN CELSIUS WHICH IS ALSO KNOWN AS
         TEMPERATURE IN CENTIGRADE
AFB    - AIR FORCE BASE
         LUKE AFB IS LUKE AIR FORCE BASE
         DAVIS-MONTHAN IS DAVIS-MONTHAN AIR FORCE BASE
NAS    - NAVAL AIR STATION
         EL CENTRO NAS IS EL CENTRO NAVAL AIR STATION
N/A    - NOT AVAILABLE




USA.gov is the U.S. government's official web portal to all federal, state and local government web resources and services.